Location: ČR
(50.0000°N, 15.0000°E)
Time: 14:18:42
(UTC+00:00)

Explorer 7 - Pass Details

Date: 21 October 2021
Orbit: 483 x 675 km, 50.3° (Epoch: 27 November)

Event Time Altitude Azimuth Distance (km) Brightness Sun altitude
Rises 01:35:41 0° 282° (WNW) 2,851 - -37.3°
Reaches altitude 10° 01:37:56 10° 281° (W) 1,977 - -37.0°
Maximum altitude 01:42:29 74° 196° (SSW) 668 - -36.4°
Exits shadow 01:47:11 10° 113° (ESE) 2,040 10.1 -35.7°
Drops below altitude 10° 01:47:16 10° 113° (ESE) 2,072 10.1 -35.7°
Sets 01:49:39 0° 111° (ESE) 2,999 11.0 -35.4°
